Regional Weather Roundup
Issued by NWS Northern Indiana

Home | Current Version | Previous Version | Graphics & Text | Print | Product List | Glossary On
Versions: 1 2 3 4 5 6 7 8 9 10 11 12 13 14 15 16 17 18 19 20 21 22 23 24 25 26 27 28 29 30 31 32 33 34 35 36 37 38 39 40 41 42 43 44 45 46 47 48 49 50
000
ASUS43 KIWX 021910
RWRIWX

KIWX WEATHER ROUNDUP
NATIONAL WEATHER SERVICE NORTHERN INDIANA
300 PM EDT MON MAY 02 2016

NOTE: "FAIR" INDICATES FEW OR NO CLOUDS BELOW 12,000 FEET WITH NO
SIGNIFICANT WEATHER AND/OR OBSTRUCTIONS TO VISIBILITY.

* THESE STATIONS ARE NOT UNDER NWS QUALITY CONTROL. THEY ALSO MAY NOT
  REPORT WEATHER SUCH AS PRECIPITATION OR FOG.

INZ001>027-022000-
NORTHERN INDIANA

CITY           SKY/WX    TMP DP  RH WIND       PRES   REMARKS
GARY*          MOSUNNY   52  45  76 N8G23     30.07S
VALPARAISO     CLOUDY    51  44  77 N8        30.03F
MICHIGAN CITY* CLOUDY    48  41  76 N7        30.06S
LAPORTE*       CLOUDY    52  47  83 N10       30.04S
KNOX*          CLOUDY    52  41  66 NE8       30.02F
SOUTH BEND     CLOUDY    51  44  77 NE6       30.05R
GOSHEN         CLOUDY    51  46  83 NE3       30.03S
MONTICELLO*    CLOUDY    53  46  77 NE8       30.01S
LOGANSPORT*    CLOUDY    52  50  93 N7        30.02S
ROCHESTER*     CLOUDY    52  50  93 NE5       30.03S
WARSAW*        CLOUDY    50  45  81 E5        30.03S
ANGOLA*        CLOUDY    48  37  66 CALM      30.02F
FORT WAYNE     DRIZZLE   51  48  89 E5        30.03S
HUNTINGTON*    CLOUDY   N/A N/A N/A NE5       30.01S
PERU/GRISSOM   CLOUDY    53  53  99 NE9       29.99S
MARION*        CLOUDY    51  49  92 NE8       30.00S

$$
INZ028>050-022000-
CENTRAL INDIANA

CITY           SKY/WX    TMP DP  RH WIND       PRES   REMARKS
LAFAYETTE      CLOUDY    52  47  83 NE6       30.01S
KOKOMO*        CLOUDY    54  46  76 NE9       30.00R
MUNCIE*        CLOUDY    56  50  80 NE7       29.99F
INDIANAPOLIS   CLOUDY    55  50  83 W7        29.98S

$$
MIZ043>046-050>051-056>058-064>065-071>073-077>080-022000-
SOUTHWEST LOWER MICHIGAN

CITY           SKY/WX    TMP DP  RH WIND       PRES   REMARKS
BATTLE CREEK   CLOUDY    51  44  77 VRB6      30.05R
BENTON HARBOR  CLOUDY    50  40  68 VRB3      30.05R
COLDWATER*       N/A    N/A N/A N/A MISG        N/A
HILLSDALE*     CLOUDY    47  45  91 NE5       30.03R FOG
HOLLAND        CLOUDY    56  40  55 VRB5      30.04R
GRAND RAPIDS   CLOUDY    56  41  57 E8        30.04R
KALAMAZOO      CLOUDY    52  42  69 E5        30.05R
STURGIS*       CLOUDY    48  46  92 N3        30.02S FOG
THREE RIVERS*  CLOUDY    51  46  83 E5        30.04S

$$
OHZ001>008-015>018-024>025-022000-
NORTHWEST OHIO

CITY           SKY/WX    TMP DP  RH WIND       PRES   REMARKS
WAUSEON*         N/A     52 N/A N/A NE8       30.03R
DEFIANCE       CLOUDY    53  47  79 NE9       30.01F
FINDLAY        CLOUDY    53  44  71 NE9       30.00F
TOLEDO EXPRESS CLOUDY    52  45  77 E6        30.02R
TOLEDO METCALF CLOUDY    52  46  80 VRB7      30.04R
LIMA           CLOUDY    52  48  86 NE8       30.01R

$$
AND FOR LAKE MICHIGAN COASTAL AND OPEN LAKE BUOY OBSERVATIONS

STATION/POSITION TEMP    WIND        PRES    VSBY  WAVE
                 AIR SEA DIR/SP/G                  HT/PER
                 (F)     (DEG/KT/KT) (MB)    (MI)  (FT/S)
CALUMET HARBOR    47     350/ 12/ 16 1017.4R
MICHIGAN CITY     45     350/ 14/ 14   N/A
BURNS HARBOR      45      10/ 11/ 15 1018.3S
SAINT JOSEPH      47     350/  6/  9 1018.6R
SOUTH LAKE BUOY   41 41  350/  4/  6 1018.1R         1/ 3
4 MI NW BRIDGMAN  46 48                N/A           2/ 4

$$
&&



USA.gov is the U.S. government's official web portal to all federal, state and local government web resources and services.